Shelton, WA

6:07 PM PDT on March 27, 2017 (GMT -0700)
Sanderson

Weather History for KSHN - January, 2014

Change the Weather History Date:

Friday, January 17, 2014

  Actual Average Record
Temperature  
Mean Temperature 42 °F -  
Max Temperature 44 °F 46 °F 55 °F (2005)
Min Temperature 39 °F 34 °F 12 °F (1950)
Degree Days  
Heating Degree Days 24    
Moisture  
Dew Point 39 °F    
Average Humidity 93    
Maximum Humidity 100    
Minimum Humidity 82    
Precipitation  
Precipitation 0.00 in - - ()
Sea Level Pressure  
Sea Level Pressure 30.26 in    
Wind  
Wind Speed 6 mph (ENE)    
Max Wind Speed 8 mph    
Max Gust Speed -    
Visibility 5 miles    
Events Fog    
Averages and records for this station are not official NWS values.
T = Trace of Precipitation, MM = Missing Value Source: NWS Daily Summary

Daily Weather History Graph

Daily Weather History Graph

Search for Another Location

Airport or City:

Trip Planner

Search our weather history database for the weather conditions in past years. The results will help you decide how hot, cold, wet, or windy it might be!

Date:

Astronomy

Jan. 17, 2014 Rise Set
Actual Time 7:53 AM PST 4:52 PM PST
Civil Twilight 7:19 AM PST 5:26 PM PST
Nautical Twilight 6:41 AM PST 6:04 PM PST
Astronomical Twilight 6:04 AM PST 6:41 PM PST
Moon 6:55 PM PST (1/17) 8:14 AM PST (1/17)
Length of Visible Light 10h 07m
Length of Day
8h 59m
Full, 98% of the Moon is Illuminated
Jan 17
Full
Jan 23
Last Quarter
Jan 30
New
Feb 6
First Quarter
Feb 14
Full

Hourly Weather History & Observations

Time (PST) Temp. Windchill Dew Point Humidity Pressure Visibility Wind Dir Wind Speed Gust Speed Precip Events Conditions
12:53 AM 39.9 °F 36.7 °F 37.9 °F 93% 30.34 in 3.0 mi NE 4.6 mph - N/A   Overcast
1:53 AM 39.0 °F 34.8 °F 37.9 °F 96% 30.33 in 3.0 mi NE 5.8 mph - N/A   Overcast
2:03 AM 39.0 °F 34.8 °F 37.9 °F 96% 30.32 in 2.5 mi NNE 5.8 mph - N/A   Overcast
2:33 AM 39.0 °F 35.7 °F 37.9 °F 96% 30.32 in 3.0 mi NE 4.6 mph - N/A   Overcast
2:38 AM 39.0 °F 34.8 °F 37.9 °F 96% 30.32 in 1.8 mi NE 5.8 mph - N/A   Overcast
2:53 AM 39.0 °F 34.8 °F 37.9 °F 96% 30.33 in 1.8 mi ENE 5.8 mph - N/A   Overcast
3:53 AM 39.0 °F 35.7 °F 37.9 °F 96% 30.31 in 1.5 mi ENE 4.6 mph - N/A   Overcast
4:53 AM 39.0 °F 34.8 °F 37.9 °F 96% 30.31 in 1.0 mi ENE 5.8 mph - N/A   Overcast
5:53 AM 39.0 °F 34.0 °F 37.9 °F 96% 30.30 in 1.0 mi ENE 6.9 mph - N/A   Overcast
8:12 AM 39.0 °F 35.7 °F 37.9 °F 96% 30.27 in 2.0 mi ENE 4.6 mph - N/A   Overcast
8:53 AM 39.0 °F 34.0 °F 37.9 °F 96% 30.28 in 2.0 mi ENE 6.9 mph - N/A   Overcast
9:02 AM 39.0 °F 34.8 °F 37.9 °F 96% 30.27 in 1.2 mi ENE 5.8 mph - N/A   Overcast
9:32 AM 39.0 °F 34.8 °F 39.0 °F 100% 30.27 in 0.5 mi NE 5.8 mph - N/A Fog Fog
9:53 AM 39.9 °F 35.1 °F 39.0 °F 97% 30.29 in 1.0 mi NE 6.9 mph - N/A   Overcast
10:17 AM 39.9 °F 35.1 °F 37.9 °F 93% 30.28 in 3.0 mi NE 6.9 mph - N/A   Overcast
10:29 AM 39.9 °F 34.5 °F 39.0 °F 97% 30.28 in 2.5 mi ENE 8.1 mph - N/A   Overcast
10:37 AM 39.9 °F 34.5 °F 39.0 °F 97% 30.27 in 4.0 mi ENE 8.1 mph - N/A   Overcast
10:53 AM 41.0 °F 35.8 °F 39.0 °F 93% 30.29 in 5.0 mi NE 8.1 mph - N/A   Overcast
11:50 AM 42.8 °F 38.6 °F 39.2 °F 87% 30.25 in 10.0 mi ENE 6.9 mph - N/A   Overcast
11:53 AM 42.1 °F 37.7 °F 39.0 °F 89% 30.27 in 10.0 mi ENE 6.9 mph - N/A   Overcast
12:02 PM 42.1 °F 38.4 °F 39.0 °F 89% 30.25 in 10.0 mi NE 5.8 mph - N/A   Overcast
12:53 PM 43.0 °F 40.3 °F 39.0 °F 86% 30.24 in 10.0 mi Variable 4.6 mph - N/A   Overcast
1:53 PM 44.1 °F 40.1 °F 39.0 °F 82% 30.22 in 10.0 mi East 6.9 mph - N/A   Overcast
2:53 PM 44.1 °F 40.1 °F 39.9 °F 85% 30.20 in 10.0 mi ENE 6.9 mph - N/A   Overcast
3:53 PM 44.1 °F 40.8 °F 39.9 °F 85% 30.20 in 10.0 mi NE 5.8 mph - N/A   Overcast
4:53 PM 43.0 °F 40.3 °F 39.9 °F 89% 30.20 in 10.0 mi Variable 4.6 mph - N/A   Overcast
5:53 PM 43.0 °F 40.3 °F 39.0 °F 86% 30.20 in 10.0 mi East 4.6 mph - N/A   Overcast
6:53 PM 42.1 °F 40.2 °F 39.0 °F 89% 30.20 in 9.0 mi ENE 3.5 mph - N/A   Overcast
7:26 PM 41.0 °F 38.0 °F 39.0 °F 93% 30.18 in 8.0 mi ENE 4.6 mph - N/A   Overcast
7:53 PM 41.0 °F 37.1 °F 39.0 °F 93% 30.19 in 7.0 mi ENE 5.8 mph - N/A   Overcast
8:53 PM 41.0 °F 39.0 °F 39.0 °F 93% 30.20 in 6.0 mi East 3.5 mph - N/A   Overcast
9:53 PM 39.9 °F 35.8 °F 37.9 °F 93% 30.19 in 6.0 mi East 5.8 mph - N/A   Overcast
10:53 PM 39.9 °F 35.8 °F 37.9 °F 93% 30.19 in 7.0 mi East 5.8 mph - N/A   Overcast
11:53 PM 39.0 °F 36.8 °F 37.0 °F 93% 30.20 in 6.0 mi East 3.5 mph - N/A   Overcast